Orbital Elements at Epoch 2459200.5 (2020-Dec-17.0) TDB
Reference: JPL 23 (heliocentric ecliptic J2000)
Element | Value | Uncertainty (1-sigma) | Units |
e | .1005917361929759 | 2.9983e-08 | |
a | 2.450178247334485 | 1.2254e-08 | au |
q | 2.203710563452847 | 7.1157e-08 | au |
i | 6.16350374257035 | 5.3948e-06 | deg |
node | 351.3011454161083 | 3.9734e-05 | deg |
peri | 64.57869240693043 | 5.1743e-05 | deg |
M | 151.6021064421085 | 3.3643e-05 | deg |
tp | 2458610.573804132302 (2019-May-07.07380413) | 0.00012957 | TDB |
period | 1400.860683907905 3.84 | 1.0509e-05 2.877e-08 | d yr |
n | .2569848694701943 | 1.9279e-09 | deg/d |
Q | 2.696645931216124 | 1.3487e-08 | au |
|
| | Orbit Determination Parameters
Additional Information
|